Content
SEND FEEDBACK

Daily
Averages
Monthly
Summary
United States of America

ENGLE, NEW MEXICO


Home > North America > United States > New Mexico
Elevation: 4770 feet     Latitude: 33 11N     Longitude: 107 02W

WEATHER
 
SELECT A DAY
Number of Records: 192,931;   Date Range: 1/1/95 - 11/21/14
 
SHARE

PRINT THIS DATA

[ ← Previous Day ]
WEATHER ALMANAC - FEBRUARY 13, 2013
[ Next Day → ]
[ °C ]   °F
Weather ElementAverageHighLow
Temperature38.4 °F52 °F (3:53 pm)25 °F (5:53 am)
Dewpoint10.9 °F16 °F (10:53 pm)7 °F (7:53 pm)
Humidity34.9 %55 % (5:53 am)17 % (4:53 pm)
Barometer30.07 in30.16 in (8:53 am)29.98 in (3:53 pm)
Wind Speed5.6 mph10.4 mph (4:53 am)
Weather ElementAverage
Visibility10 mi
Wind DirectionSSW (197 °)

Weather ElementTotal
Precipitation---
Heating Degree Days26.5 (Base 65)
Averaged from 23 records on February 13, 2013
WEATHER CONDITIONS BREAKOUT
WIND DIRECTION BREAKOUT
WEATHER BY HOUR - FEBRUARY 13, 2013
[ °C ]   °F
Local TimeTemperatureDewpointHumidityBarometerVisibilityWind DirectionWind SpeedGust SpeedPrecipitationEventsConditions
1:53 AM28.9 °F10.9 °F47 %30.12 in10.0 miNW (310°)6.9 mphClear
2:53 AM28.9 °F12.9 °F51 %30.11 in10.0 miNW (310°)4.6 mphClear
3:53 AM27.0 °F12.0 °F53 %30.09 in10.0 miWNW (290°)4.6 mphClear
4:53 AM26.1 °F10.9 °F53 %30.11 in10.0 miNW (320°)10.4 mphClear
5:53 AM25.0 °F10.9 °F55 %30.12 in10.0 miNW (320°)6.9 mphClear
6:53 AM25.0 °F10.0 °F53 %30.14 in10.0 miNNW (340°)3.5 mphClear
7:53 AM28.9 °F10.9 °F47 %30.15 in10.0 miNorth (10°)4.6 mphClear
8:53 AM34.0 °F10.9 °F38 %30.16 in10.0 miCalmClear
9:53 AM37.0 °F12.0 °F36 %30.15 in10.0 miENE (60°)8.1 mphClear
10:53 AM37.9 °F12.9 °F36 %30.14 in10.0 miVariable6.9 mphClear
11:53 AM42.1 °F10.9 °F28 %30.10 in10.0 miEast (90°)3.5 mphClear
12:53 PM45.0 °F10.0 °F24 %30.05 in10.0 miVariable3.5 mphClear
1:53 PM48.0 °F10.0 °F22 %30.01 in10.0 miEast (100°)4.6 mphClear
2:53 PM50.0 °F10.0 °F20 %29.99 in10.0 miCalmClear
3:53 PM52.0 °F9.0 °F18 %29.98 in10.0 miSouth (190°)6.9 mphClear
4:53 PM52.0 °F8.1 °F17 %29.98 in10.0 miSouth (180°)9.2 mphClear
5:53 PM50.0 °F8.1 °F18 %29.99 in10.0 miSouth (190°)4.6 mphClear
6:53 PM46.0 °F8.1 °F21 %30.02 in10.0 miSW (220°)3.5 mphClear
7:53 PM42.1 °F7.0 °F24 %30.04 in10.0 miWest (280°)5.8 mphClear
8:53 PM41.0 °F10.0 °F28 %30.03 in10.0 miNNW (330°)8.1 mphClear
9:53 PM39.9 °F15.1 °F36 %30.04 in10.0 miNNW (330°)8.1 mphClear
10:53 PM39.9 °F16.0 °F38 %30.05 in10.0 miNNW (330°)9.2 mphClear
11:53 PM37.0 °F14.0 °F39 %30.06 in10.0 miNNW (330°)4.6 mphClear
Hourly data recorded from KTCS, located miles away from Engle, New Mexico







STORIES FROM OUR PARTNERS